Watsonville, CA

7:25 PM PDT on August 18, 2017 (GMT -0700)
Watsonville Municipal

Weather History for KWVI - October, 2011

Change the Weather History Date:

Thursday, October 20, 2011

  Actual Average Record
Temperature  
Mean Temperature 58 °F 60 °F  
Max Temperature 66 °F 72 °F 85 °F (2006)
Min Temperature 49 °F 48 °F 45 °F (1999)
Degree Days  
Heating Degree Days 7    
Month to date heating degree days 61  
Since 1 July heating degree days 272  
Cooling Degree Days 0    
Month to date cooling degree days 29  
Year to date cooling degree days 98  
Growing Degree Days 7 (Base 50)    
Moisture  
Dew Point 52 °F    
Average Humidity 84    
Maximum Humidity 96    
Minimum Humidity 72    
Precipitation  
Precipitation 0.01 in - 0.62 in (1979)
Month to date precipitation 1.96  
Year to date precipitation 20.30  
Since 1 July precipitation 2.12  
Sea Level Pressure  
Sea Level Pressure 30.04 in    
Wind  
Wind Speed 2 mph (SSE)    
Max Wind Speed 9 mph    
Max Gust Speed 26 mph    
Visibility 6 miles    
Events Fog    
T = Trace of Precipitation, MM = Missing Value Source: NWS Daily Summary

Daily Weather History Graph

Daily Weather History Graph

Search for Another Location

Airport or City:

Trip Planner

Search our weather history database for the weather conditions in past years. The results will help you decide how hot, cold, wet, or windy it might be!

Date:

Astronomy

Oct. 20, 2011 Rise Set
Actual Time 7:19 AM PDT 6:24 PM PDT
Civil Twilight 6:52 AM PDT 6:50 PM PDT
Nautical Twilight 6:22 AM PDT 7:20 PM PDT
Astronomical Twilight 5:52 AM PDT 7:50 PM PDT
Moon 12:20 AM PDT (10/20) 2:27 PM PDT (10/20)
Length of Visible Light 11h 57m
Length of Day
11h 04m
Last Quarter, 43% of the Moon is Illuminated
Oct 20
Last Quarter
Oct 26
New
Nov 2
First Quarter
Nov 10
Full
Nov 18
Last Quarter

Hourly Weather History & Observations

Time (PDT) Temp. Dew Point Humidity Pressure Visibility Wind Dir Wind Speed Gust Speed Precip Events Conditions
12:53 AM 53.1 °F 50.0 °F 89% 30.00 in 10.0 mi WNW 4.6 mph - N/A   Clear
1:53 AM 51.1 °F 48.9 °F 92% 30.01 in 10.0 mi Calm Calm - N/A   Clear
3:53 AM 50.0 °F 46.9 °F 89% 30.00 in 9.0 mi Calm Calm - N/A   Clear
4:53 AM 50.0 °F 46.9 °F 89% 30.00 in 9.0 mi Calm Calm - N/A   Clear
5:51 AM 50.0 °F 46.4 °F 87% 30.01 in 10.0 mi Calm Calm - 0.01 in   Scattered Clouds
5:53 AM 50.0 °F 46.9 °F 89% 30.01 in 10.0 mi Calm Calm - 0.01 in   Scattered Clouds
6:00 AM 50.0 °F 46.4 °F 87% 30.01 in 10.0 mi Calm Calm - N/A   Mostly Cloudy
6:09 AM 50.0 °F 46.4 °F 87% 30.01 in 10.0 mi Calm Calm - N/A   Overcast
6:45 AM 51.8 °F 48.2 °F 88% 30.02 in 1.8 mi Calm Calm - N/A   Overcast
6:53 AM 52.0 °F 50.0 °F 93% 30.02 in 1.0 mi Calm Calm - N/A   Mist
7:03 AM 51.8 °F 50.0 °F 94% 30.02 in 0.5 mi Calm Calm - N/A Fog Fog
7:42 AM 51.8 °F 50.0 °F 94% 30.02 in 0.2 mi Calm Calm - N/A Fog Fog
7:53 AM 53.1 °F 51.1 °F 93% 30.02 in 0.2 mi Calm Calm - N/A Fog Fog
9:07 AM 53.6 °F 51.8 °F 94% 30.05 in 0.2 mi Calm Calm - N/A Fog Fog
9:16 AM 53.6 °F 51.8 °F 94% 30.05 in 0.5 mi Calm Calm - N/A Fog Fog
9:30 AM 53.6 °F 51.8 °F 94% 30.05 in 1.2 mi Calm Calm - N/A   Overcast
9:51 AM 53.6 °F 51.8 °F 94% 30.05 in 1.8 mi Calm Calm - N/A   Overcast
9:53 AM 54.0 °F 52.0 °F 93% 30.06 in 1.8 mi Calm Calm - N/A   Overcast
10:03 AM 55.4 °F 53.6 °F 94% 30.06 in 2.5 mi Calm Calm - N/A   Overcast
10:22 AM 55.4 °F 53.6 °F 94% 30.06 in 3.0 mi Calm Calm - N/A   Overcast
10:31 AM 53.6 °F 53.6 °F 100% 30.06 in 2.5 mi Calm Calm - N/A   Overcast
10:41 AM 55.4 °F 53.6 °F 94% 30.06 in 4.0 mi Calm Calm - N/A   Overcast
10:53 AM 55.0 °F 53.1 °F 93% 30.06 in 4.0 mi Calm Calm - N/A   Overcast
11:53 AM 57.9 °F 54.0 °F 87% 30.06 in 5.0 mi Calm Calm - N/A   Overcast
12:21 PM 59.0 °F 53.6 °F 82% 30.05 in 8.0 mi SSW 4.6 mph - N/A   Overcast
12:53 PM 61.0 °F 54.0 °F 78% 30.04 in 10.0 mi SE 3.5 mph - N/A   Overcast
1:53 PM 60.1 °F 54.0 °F 80% 30.03 in 9.0 mi South 6.9 mph - N/A   Overcast
2:27 PM 62.6 °F 53.6 °F 72% 30.02 in 10.0 mi South 4.6 mph - N/A   Scattered Clouds
2:53 PM 64.0 °F 55.0 °F 73% 30.01 in 10.0 mi SSE 4.6 mph - N/A   Clear
3:53 PM 64.9 °F 55.0 °F 70% 30.01 in 10.0 mi SSE 5.8 mph - N/A   Clear
4:53 PM 64.0 °F 55.0 °F 73% 30.01 in 10.0 mi SE 5.8 mph - N/A   Clear
5:53 PM 62.1 °F 54.0 °F 75% 30.02 in 10.0 mi ESE 4.6 mph - N/A   Clear
6:53 PM 59.0 °F 54.0 °F 83% 30.03 in 10.0 mi ESE 4.6 mph - N/A   Clear
7:53 PM 57.0 °F 53.1 °F 87% 30.05 in 10.0 mi Calm Calm - N/A   Clear
8:33 PM 57.2 °F 53.6 °F 88% 30.05 in 9.0 mi Calm Calm - N/A   Scattered Clouds
8:42 PM 57.2 °F 53.6 °F 88% 30.05 in 9.0 mi Calm Calm - N/A   Mostly Cloudy
8:53 PM 55.9 °F 52.0 °F 87% 30.06 in 9.0 mi Calm Calm - N/A   Mostly Cloudy
9:25 PM 55.4 °F 51.8 °F 88% 30.07 in 9.0 mi Calm Calm - N/A   Scattered Clouds
9:46 PM 55.4 °F 51.8 °F 88% 30.07 in 8.0 mi Calm Calm - N/A   Mostly Cloudy
10:00 PM 55.4 °F 51.8 °F 88% 30.07 in 8.0 mi Calm Calm - N/A   Overcast
10:12 PM 55.4 °F 53.6 °F 94% 30.08 in 6.0 mi Calm Calm - N/A   Overcast
10:21 PM 55.4 °F 53.6 °F 94% 30.08 in 1.8 mi Calm Calm - N/A   Overcast
10:30 PM 55.4 °F 53.6 °F 94% 30.08 in 1.0 mi Calm Calm - N/A   Overcast
10:53 PM 55.9 °F 54.0 °F 93% 30.09 in 1.5 mi Calm Calm - N/A   Overcast
11:14 PM 55.4 °F 53.6 °F 94% 30.10 in 2.0 mi Calm Calm - N/A   Overcast
11:28 PM 55.4 °F 53.6 °F 94% 30.10 in 1.2 mi Calm Calm - N/A   Overcast
11:45 PM 55.4 °F 53.6 °F 94% 30.10 in 0.8 mi Calm Calm - N/A   Mist
11:53 PM 55.9 °F 54.0 °F 93% 30.10 in 0.8 mi Calm Calm - N/A   Mist